TimeCST,TemperatureF,Dew PointF,Humidity,Sea Level PressureIn,VisibilityMPH,Wind Direction,Wind SpeedMPH,Gust SpeedMPH,PrecipitationIn,Events,Conditions,WindDirDegrees,DateUTC
12:55 AM,48.7,33.1,55,30.35,10.0,Calm,Calm,-,N/A,,Mostly Cloudy,0,2012-11-16 06:55:00
1:55 AM,48.0,34.3,59,30.35,10.0,Calm,Calm,-,N/A,,Overcast,0,2012-11-16 07:55:00
2:55 AM,45.5,36.7,71,30.35,10.0,Calm,Calm,-,N/A,,Overcast,0,2012-11-16 08:55:00
3:55 AM,44.8,34.9,68,30.35,10.0,Calm,Calm,-,N/A,,Mostly Cloudy,0,2012-11-16 09:55:00
4:55 AM,43.5,36.5,76,30.36,10.0,Calm,Calm,-,N/A,,Overcast,0,2012-11-16 10:55:00
5:55 AM,44.1,36.0,73,30.37,10.0,NNE,4.6,-,N/A,,Overcast,30,2012-11-16 11:55:00
6:55 AM,43.9,35.8,73,30.39,10.0,North,5.8,-,N/A,,Overcast,10,2012-11-16 12:55:00
7:55 AM,45.0,35.4,69,30.40,10.0,NNE,4.6,-,N/A,,Overcast,20,2012-11-16 13:55:00
8:55 AM,46.8,35.2,64,30.41,10.0,ENE,4.6,-,N/A,,Overcast,60,2012-11-16 14:55:00
9:55 AM,50.9,34.3,53,30.41,10.0,ESE,4.6,-,N/A,,Overcast,110,2012-11-16 15:55:00
10:55 AM,55.0,31.8,41,30.41,10.0,SSE,3.5,-,N/A,,Partly Cloudy,160,2012-11-16 16:55:00
11:55 AM,58.6,32.2,37,30.40,10.0,SSE,5.8,-,N/A,,Overcast,160,2012-11-16 17:55:00
12:55 PM,59.9,27.9,30,30.37,10.0,SSE,5.8,-,N/A,,Clear,150,2012-11-16 18:55:00
1:55 PM,61.5,24.8,25,30.34,10.0,Variable,4.6,-,N/A,,Clear,0,2012-11-16 19:55:00
2:55 PM,61.7,28.4,28,30.32,10.0,South,5.8,-,N/A,,Clear,170,2012-11-16 20:55:00
3:55 PM,61.7,29.1,29,30.32,10.0,South,4.6,-,N/A,,Clear,170,2012-11-16 21:55:00
4:55 PM,59.7,31.6,35,30.32,10.0,SE,6.9,-,N/A,,Clear,140,2012-11-16 22:55:00
5:55 PM,55.0,31.6,41,30.32,10.0,Calm,Calm,-,N/A,,Clear,0,2012-11-16 23:55:00
6:55 PM,53.4,31.5,43,30.33,10.0,Calm,Calm,-,N/A,,Clear,0,2012-11-17 00:55:00
7:55 PM,51.4,32.5,49,30.33,10.0,Calm,Calm,-,N/A,,Clear,0,2012-11-17 01:55:00
8:55 PM,47.8,33.4,57,30.34,10.0,Calm,Calm,-,N/A,,Clear,0,2012-11-17 02:55:00
9:55 PM,47.5,32.4,56,30.34,10.0,SE,3.5,-,N/A,,Clear,140,2012-11-17 03:55:00
10:55 PM,45.7,32.2,59,30.33,10.0,SE,3.5,-,N/A,,Clear,140,2012-11-17 04:55:00
11:55 PM,45.3,31.5,58,30.33,10.0,SSE,3.5,-,N/A,,Clear,150,2012-11-17 05:55:00